Starlink 36253

operational
NORAD ID: 68028 Int'l Des: 2026-040 Owner: SPXS Country: US Constellation: starlink
LEOCIRCULARRETROGRADE

Über Starlink 36253

Beschreibung wird geladen...

Live-Position

3D-Globus wird geladen...

Nächste Überflüge

Höhenverlauf

Altitude vs Time

uPlot chart will show altitude changes over time

Zweizeiliger Elementsatz

1 68028C 26040P 26061.09840278 .01310500 00000+0 11865-2 0 611
2 68028 97.2844 8.4830 0009630 249.6842 183.0613 16.11200468 18
Epoch: 2. März 2026 • Age: 27 hours

Aktueller Status

Höhe 252.6 km
Geschwindigkeit 7.76 km/s
Subsatellitenpunkt -50.55°S, 170.06°E
Startdatum 1. März 2026
Alter 1 days
Typ internet

Technische Details

Klassifizierung Payload
Masse 575.00 kg
Trockenmasse 530.00 kg
Gesamtmasse 575.00 kg
Länge 0.30 m
Durchmesser 4.10 m
Spannweite 29.00 m
Form Box + pan
Hersteller SPXS
Bus-Typ Starlink V2MO
Phasenstatus In Orbit
Besitzer/Staat SPXS/US

Große Konstellationen

Loading constellations...